Time,TemperatureF,DewpointF,PressureIn,WindDirection,WindDirectionDegrees,WindSpeedMPH,WindSpeedGustMPH,Humidity,HourlyPrecipIn,Conditions,Clouds,dailyrainin,SolarRadiationWatts/m^2,SoftwareType,DateUTC
2013-01-21 00:00:00,39.4,38.1,30.10,NNE,24,0.0,0.0,95,0.00,CLR,SKC,0.00,0.0,WeatherDisplay:10.37,2013-01-21 05:00:00,
2013-01-21 00:02:00,39.3,38.0,30.10,NNE,24,0.0,0.0,95,0.00,CLR,SKC,0.00,0.0,WeatherDisplay:10.37,2013-01-21 05:02:00,
2013-01-21 00:03:00,39.4,38.1,30.10,NNE,24,0.0,0.0,95,0.00,CLR,SKC,0.00,0.0,WeatherDisplay:10.37,2013-01-21 05:03:00,
2013-01-21 00:05:00,39.1,37.8,30.10,NNE,24,0.0,0.0,95,0.00,CLR,SKC,0.00,0.0,WeatherDisplay:10.37,2013-01-21 05:05:00,
2013-01-21 00:10:00,39.1,37.5,30.10,NNE,24,0.0,0.0,94,0.00,CLR,SKC,0.00,0.0,WeatherDisplay:10.37,2013-01-21 05:10:00,
2013-01-21 00:15:00,38.7,37.4,30.10,NNE,24,0.0,0.0,95,0.00,CLR,SKC,0.00,0.0,WeatherDisplay:10.37,2013-01-21 05:15:00,
2013-01-21 00:20:00,38.6,37.6,30.10,NNE,24,0.0,0.0,96,0.00,CLR,SKC,0.00,0.0,WeatherDisplay:10.37,2013-01-21 05:20:00,
2013-01-21 00:25:00,38.2,37.2,30.10,NNE,24,0.0,0.0,96,0.00,CLR,SKC,0.00,0.0,WeatherDisplay:10.37,2013-01-21 05:25:00,
2013-01-21 00:30:00,38.2,37.2,30.10,NNE,24,0.0,0.0,96,0.00,CLR,SKC,0.00,0.0,WeatherDisplay:10.37,2013-01-21 05:30:00,
2013-01-21 00:35:00,37.5,36.5,30.10,NNE,24,0.0,0.0,96,0.00,CLR,SKC,0.00,0.0,WeatherDisplay:10.37,2013-01-21 05:35:00,
2013-01-21 00:40:00,37.9,36.9,30.10,NNE,24,0.0,0.0,96,0.00,CLR,SKC,0.00,0.0,WeatherDisplay:10.37,2013-01-21 05:40:00,
2013-01-21 00:45:00,37.6,36.6,30.10,NNE,24,0.0,0.0,96,0.00,CLR,SKC,0.00,0.0,WeatherDisplay:10.37,2013-01-21 05:45:00,
2013-01-21 00:50:00,37.3,36.3,30.10,NNE,24,0.0,0.0,96,0.00,CLR,SKC,0.00,0.0,WeatherDisplay:10.37,2013-01-21 05:50:00,
2013-01-21 00:55:00,37.5,36.5,30.10,NNE,24,0.0,0.0,96,0.00,CLR,SKC,0.00,0.0,WeatherDisplay:10.37,2013-01-21 05:55:00,
2013-01-21 01:00:00,37.2,36.2,30.09,NNE,24,0.0,0.0,96,0.00,CLR,SKC,0.00,0.0,WeatherDisplay:10.37,2013-01-21 06:00:00,
2013-01-21 01:05:00,37.1,36.1,30.09,NNE,24,0.0,0.0,96,0.00,CLR,SKC,0.00,0.0,WeatherDisplay:10.37,2013-01-21 06:05:00,
2013-01-21 01:10:00,36.9,35.9,30.09,NNE,24,0.0,0.0,96,0.00,CLR,SKC,0.00,0.0,WeatherDisplay:10.37,2013-01-21 06:10:00,
2013-01-21 01:15:00,37.1,36.1,30.09,NNE,24,0.0,0.0,96,0.00,CLR,SKC,0.00,0.0,WeatherDisplay:10.37,2013-01-21 06:15:00,
2013-01-21 01:20:00,37.0,36.0,30.09,NNE,24,0.0,0.0,96,0.00,CLR,SKC,0.00,0.0,WeatherDisplay:10.37,2013-01-21 06:20:00,
2013-01-21 01:25:00,36.7,35.7,30.09,NNE,24,0.0,0.0,96,0.00,CLR,SKC,0.00,0.0,WeatherDisplay:10.37,2013-01-21 06:25:00,
2013-01-21 01:30:00,36.6,35.6,30.09,NNE,24,0.0,0.0,96,0.00,CLR,SKC,0.00,0.0,WeatherDisplay:10.37,2013-01-21 06:30:00,
2013-01-21 01:35:00,36.6,35.6,30.09,WSW,241,1.9,1.9,96,0.00,CLR,SKC,0.00,0.0,WeatherDisplay:10.37,2013-01-21 06:35:00,
2013-01-21 01:40:00,35.7,34.7,30.09,West,261,2.3,2.3,96,0.00,CLR,SKC,0.00,0.0,WeatherDisplay:10.37,2013-01-21 06:40:00,
2013-01-21 01:45:00,35.8,34.8,30.09,WSW,254,0.0,0.0,96,0.00,CLR,SKC,0.00,0.0,WeatherDisplay:10.37,2013-01-21 06:45:00,
2013-01-21 01:50:00,35.1,34.1,30.09,North,350,2.4,2.4,96,0.00,CLR,SKC,0.00,0.0,WeatherDisplay:10.37,2013-01-21 06:50:00,
2013-01-21 01:55:00,35.1,34.3,30.09,NNW,339,3.5,3.5,97,0.00,CLR,SKC,0.00,0.0,WeatherDisplay:10.37,2013-01-21 06:55:00,
2013-01-21 02:00:00,35.2,34.4,30.09,WNW,289,0.0,0.0,97,0.00,CLR,SKC,0.00,0.0,WeatherDisplay:10.37,2013-01-21 07:00:00,
2013-01-21 02:05:00,35.4,34.6,30.09,WNW,289,0.0,0.0,97,0.00,CLR,SKC,0.00,0.0,WeatherDisplay:10.37,2013-01-21 07:05:00,
2013-01-21 02:10:00,35.3,34.5,30.09,WNW,289,0.0,0.0,97,0.00,CLR,SKC,0.00,0.0,WeatherDisplay:10.37,2013-01-21 07:10:00,
2013-01-21 02:15:00,35.3,34.5,30.09,WNW,289,0.0,0.0,97,0.00,CLR,SKC,0.00,0.0,WeatherDisplay:10.37,2013-01-21 07:15:00,
2013-01-21 02:20:00,35.4,34.6,30.09,WNW,289,0.0,0.0,97,0.00,CLR,SKC,0.00,0.0,WeatherDisplay:10.37,2013-01-21 07:20:00,
2013-01-21 02:25:00,35.3,34.5,30.09,WNW,289,0.0,0.0,97,0.00,CLR,SKC,0.00,0.0,WeatherDisplay:10.37,2013-01-21 07:25:00,
2013-01-21 02:30:00,35.4,34.6,30.09,WNW,289,0.0,0.0,97,0.00,CLR,SKC,0.00,0.0,WeatherDisplay:10.37,2013-01-21 07:30:00,
2013-01-21 02:35:00,35.1,34.3,30.09,NNW,335,3.5,3.5,97,0.00,CLR,SKC,0.00,0.0,WeatherDisplay:10.37,2013-01-21 07:35:00,
2013-01-21 02:40:00,34.6,34.1,30.09,NNW,340,4.6,4.6,98,0.00,CLR,SKC,0.00,0.0,WeatherDisplay:10.37,2013-01-21 07:40:00,
2013-01-21 02:45:00,34.0,33.5,30.09,NNW,336,4.6,4.6,98,0.00,CLR,SKC,0.00,0.0,WeatherDisplay:10.37,2013-01-21 07:45:00,
2013-01-21 02:50:00,33.8,33.3,30.09,NNW,329,3.5,3.5,98,0.00,CLR,SKC,0.00,0.0,WeatherDisplay:10.37,2013-01-21 07:50:00,
2013-01-21 02:55:00,33.9,33.4,30.09,NNW,336,2.3,2.3,98,0.00,CLR,SKC,0.00,0.0,WeatherDisplay:10.37,2013-01-21 07:55:00,
2013-01-21 03:00:00,34.4,33.9,30.09,NNW,329,3.5,3.5,98,0.00,CLR,SKC,0.00,0.0,WeatherDisplay:10.37,2013-01-21 08:00:00,
2013-01-21 03:05:00,34.1,33.6,30.09,NNW,336,1.1,0.0,98,0.00,CLR,SKC,0.00,0.0,WeatherDisplay:10.37,2013-01-21 08:05:00,
2013-01-21 03:10:00,34.4,33.9,30.09,WNW,298,0.0,0.0,98,0.00,CLR,SKC,0.00,0.0,WeatherDisplay:10.37,2013-01-21 08:10:00,
2013-01-21 03:15:00,34.4,33.9,30.09,WNW,298,0.0,0.0,98,0.00,CLR,SKC,0.00,0.0,WeatherDisplay:10.37,2013-01-21 08:15:00,
2013-01-21 03:20:00,34.2,33.7,30.09,WNW,298,0.0,0.0,98,0.00,CLR,SKC,0.00,0.0,WeatherDisplay:10.37,2013-01-21 08:20:00,
2013-01-21 03:25:00,34.6,34.1,30.09,WNW,298,0.0,0.0,98,0.00,CLR,SKC,0.00,0.0,WeatherDisplay:10.37,2013-01-21 08:25:00,
2013-01-21 03:30:00,34.0,33.5,30.09,WNW,298,0.0,0.0,98,0.00,CLR,SKC,0.00,0.0,WeatherDisplay:10.37,2013-01-21 08:30:00,
2013-01-21 03:35:00,34.4,33.9,30.09,WNW,298,0.0,0.0,98,0.00,CLR,SKC,0.00,0.0,WeatherDisplay:10.37,2013-01-21 08:35:00,
2013-01-21 03:40:00,34.2,33.7,30.09,WNW,298,0.0,0.0,98,0.00,CLR,SKC,0.00,0.0,WeatherDisplay:10.37,2013-01-21 08:40:00,
2013-01-21 03:45:00,33.8,33.3,30.08,WNW,298,0.0,0.0,98,0.00,CLR,SKC,0.00,0.0,WeatherDisplay:10.37,2013-01-21 08:45:00,
2013-01-21 03:50:00,33.5,33.0,30.09,WNW,298,0.0,0.0,98,0.00,CLR,SKC,0.00,0.0,WeatherDisplay:10.37,2013-01-21 08:50:00,
2013-01-21 03:55:00,33.8,33.3,30.09,WNW,298,0.0,0.0,98,0.00,CLR,SKC,0.00,0.0,WeatherDisplay:10.37,2013-01-21 08:55:00,
2013-01-21 04:00:00,33.4,32.9,30.08,WNW,298,0.0,0.0,98,0.00,CLR,SKC,0.00,0.0,WeatherDisplay:10.37,2013-01-21 09:00:00,
2013-01-21 04:05:00,32.9,32.4,30.09,WNW,298,0.0,0.0,98,0.00,CLR,SKC,0.00,0.0,WeatherDisplay:10.37,2013-01-21 09:05:00,
2013-01-21 04:10:00,32.5,32.0,30.09,WNW,298,0.0,0.0,98,0.00,CLR,SKC,0.00,0.0,WeatherDisplay:10.37,2013-01-21 09:10:00,
2013-01-21 04:15:00,32.7,32.5,30.09,NNW,336,2.8,2.8,99,0.00,CLR,SKC,0.00,0.0,WeatherDisplay:10.37,2013-01-21 09:15:00,
2013-01-21 04:20:00,32.6,32.1,30.09,NW,319,3.5,3.5,98,0.00,CLR,SKC,0.00,0.0,WeatherDisplay:10.37,2013-01-21 09:20:00,
2013-01-21 04:25:00,32.7,32.5,30.09,NW,320,2.3,2.3,99,0.00,CLR,SKC,0.00,0.0,WeatherDisplay:10.37,2013-01-21 09:25:00,
2013-01-21 04:30:00,32.6,32.1,30.09,NW,320,0.0,0.0,98,0.00,CLR,SKC,0.00,0.0,WeatherDisplay:10.37,2013-01-21 09:30:00,
2013-01-21 04:35:00,32.5,32.0,30.08,NW,320,0.0,0.0,98,0.00,CLR,SKC,0.00,0.0,WeatherDisplay:10.37,2013-01-21 09:35:00,
2013-01-21 04:40:00,32.2,31.7,30.09,NW,320,0.0,0.0,98,0.00,CLR,SKC,0.00,0.0,WeatherDisplay:10.37,2013-01-21 09:40:00,
2013-01-21 04:47:00,32.0,31.8,30.09,NW,320,0.0,0.0,99,0.00,CLR,SKC,0.00,0.0,WeatherDisplay:10.37,2013-01-21 09:47:00,
2013-01-21 04:52:00,32.3,32.1,30.09,NNW,340,2.3,2.3,99,0.00,CLR,SKC,0.00,0.0,WeatherDisplay:10.37,2013-01-21 09:52:00,
2013-01-21 04:57:00,32.3,32.1,30.09,NW,319,0.0,0.0,99,0.00,CLR,SKC,0.00,0.0,WeatherDisplay:10.37,2013-01-21 09:57:00,
2013-01-21 05:02:00,32.3,32.1,30.09,NW,323,3.5,3.5,99,0.00,CLR,SKC,0.00,0.0,WeatherDisplay:10.37,2013-01-21 10:02:00,
2013-01-21 05:07:00,32.5,32.3,30.09,WNW,296,0.0,0.0,99,0.00,CLR,SKC,0.00,0.0,WeatherDisplay:10.37,2013-01-21 10:07:00,
2013-01-21 05:12:00,32.5,32.3,30.09,WNW,296,0.0,0.0,99,0.00,CLR,SKC,0.00,0.0,WeatherDisplay:10.37,2013-01-21 10:12:00,
2013-01-21 05:17:00,32.3,32.1,30.09,WNW,296,0.0,0.0,99,0.00,CLR,SKC,0.00,0.0,WeatherDisplay:10.37,2013-01-21 10:17:00,
2013-01-21 05:22:00,32.3,32.1,30.09,WNW,296,0.0,0.0,99,0.00,CLR,SKC,0.00,0.0,WeatherDisplay:10.37,2013-01-21 10:22:00,
2013-01-21 05:27:00,32.8,32.6,30.09,WNW,296,0.0,0.0,99,0.00,CLR,SKC,0.00,0.0,WeatherDisplay:10.37,2013-01-21 10:27:00,
2013-01-21 05:32:00,32.3,32.1,30.09,WNW,296,0.0,0.0,99,0.00,CLR,SKC,0.00,0.0,WeatherDisplay:10.37,2013-01-21 10:32:00,
2013-01-21 05:37:00,32.8,32.6,30.09,WNW,296,0.0,0.0,99,0.00,CLR,SKC,0.00,0.0,WeatherDisplay:10.37,2013-01-21 10:37:00,
2013-01-21 05:42:00,32.5,32.3,30.09,WNW,296,0.0,0.0,99,0.00,CLR,SKC,0.00,0.0,WeatherDisplay:10.37,2013-01-21 10:42:00,
2013-01-21 05:47:00,32.4,32.2,30.09,WNW,296,0.0,0.0,99,0.00,CLR,SKC,0.00,0.0,WeatherDisplay:10.37,2013-01-21 10:47:00,
2013-01-21 05:52:00,31.9,31.7,30.09,WNW,296,0.0,0.0,99,0.00,CLR,SKC,0.00,0.0,WeatherDisplay:10.37,2013-01-21 10:52:00,
2013-01-21 05:57:00,31.3,30.8,30.09,WNW,296,0.0,0.0,98,0.00,CLR,SKC,0.00,0.0,WeatherDisplay:10.37,2013-01-21 10:57:00,
2013-01-21 06:02:00,31.2,31.0,30.09,NW,312,3.5,3.5,99,0.00,CLR,SKC,0.00,0.0,WeatherDisplay:10.37,2013-01-21 11:02:00,
2013-01-21 06:07:00,31.2,31.0,30.10,NW,312,0.0,0.0,99,0.00,CLR,SKC,0.00,0.0,WeatherDisplay:10.37,2013-01-21 11:07:00,
2013-01-21 06:12:00,31.2,31.0,30.10,NW,312,0.0,0.0,99,0.00,CLR,SKC,0.00,0.0,WeatherDisplay:10.37,2013-01-21 11:12:00,
2013-01-21 06:17:00,31.3,31.1,30.10,NW,312,0.0,0.0,99,0.00,CLR,SKC,0.00,0.0,WeatherDisplay:10.37,2013-01-21 11:17:00,
2013-01-21 06:22:00,31.2,31.0,30.10,NW,312,0.0,0.0,99,0.00,CLR,SKC,0.00,0.0,WeatherDisplay:10.37,2013-01-21 11:22:00,
2013-01-21 06:27:00,31.3,31.1,30.10,NW,312,0.0,0.0,99,0.00,CLR,SKC,0.00,0.0,WeatherDisplay:10.37,2013-01-21 11:27:00,
2013-01-21 06:32:00,31.2,31.0,30.10,NW,312,0.0,0.0,99,0.00,CLR,SKC,0.00,0.0,WeatherDisplay:10.37,2013-01-21 11:32:00,
2013-01-21 06:37:00,31.4,31.4,30.09,SE,134,1.7,1.7,100,0.00,CLR,SKC,0.00,0.0,WeatherDisplay:10.37,2013-01-21 11:37:00,
2013-01-21 06:42:00,31.6,31.4,30.09,ESE,104,0.0,0.0,99,0.00,CLR,SKC,0.00,0.0,WeatherDisplay:10.37,2013-01-21 11:42:00,
2013-01-21 06:48:00,31.7,31.5,30.09,SSE,164,0.0,0.0,99,0.00,CLR,SKC,0.00,0.0,WeatherDisplay:10.37,2013-01-21 11:48:00,
2013-01-21 06:53:00,32.1,31.9,30.09,SSE,164,0.0,0.0,99,0.00,CLR,SKC,0.00,0.0,WeatherDisplay:10.37,2013-01-21 11:53:00,
2013-01-21 06:58:00,31.6,31.4,30.09,SSE,164,0.0,0.0,99,0.00,CLR,SKC,0.00,0.0,WeatherDisplay:10.37,2013-01-21 11:58:00,
2013-01-21 07:03:00,31.6,31.4,30.09,SSE,164,0.0,0.0,99,0.00,CLR,SKC,0.00,0.0,WeatherDisplay:10.37,2013-01-21 12:03:00,
2013-01-21 07:08:00,31.5,31.3,30.09,SSE,147,2.3,2.3,99,0.00,CLR,SKC,0.00,0.0,WeatherDisplay:10.37,2013-01-21 12:08:00,
2013-01-21 07:13:00,31.9,31.7,30.09,ESE,110,0.0,0.0,99,0.00,CLR,SKC,0.00,0.0,WeatherDisplay:10.37,2013-01-21 12:13:00,
2013-01-21 07:18:00,31.6,31.4,30.09,ESE,110,0.0,0.0,99,0.00,CLR,SKC,0.00,0.0,WeatherDisplay:10.37,2013-01-21 12:18:00,
2013-01-21 07:23:00,31.4,31.2,30.09,ESE,110,0.0,0.0,99,0.00,CLR,SKC,0.00,0.0,WeatherDisplay:10.37,2013-01-21 12:23:00,
2013-01-21 07:28:00,31.5,31.3,30.09,ESE,110,0.0,0.0,99,0.00,CLR,SKC,0.00,0.0,WeatherDisplay:10.37,2013-01-21 12:28:00,
2013-01-21 07:39:00,31.5,31.3,30.09,North,0,0.0,0.0,99,0.00,CLR,SKC,0.00,0.0,WeatherDisplay:10.37,2013-01-21 12:39:00,
2013-01-21 07:44:00,31.7,31.5,30.09,North,0,0.0,0.0,99,0.00,CLR,SKC,0.00,0.0,WeatherDisplay:10.37,2013-01-21 12:44:00,
2013-01-21 07:49:00,32.3,32.1,30.10,NE,55,1.1,0.0,99,0.00,CLR,SKC,0.00,0.0,WeatherDisplay:10.37,2013-01-21 12:49:00,
2013-01-21 07:54:00,32.4,32.2,30.09,East,86,2.3,2.3,99,0.00,CLR,SKC,0.00,0.0,WeatherDisplay:10.37,2013-01-21 12:54:00,
2013-01-21 07:59:00,32.5,32.3,30.09,East,85,0.0,0.0,99,0.00,CLR,SKC,0.00,0.0,WeatherDisplay:10.37,2013-01-21 12:59:00,
2013-01-21 08:04:00,32.8,32.6,30.09,East,85,0.0,0.0,99,0.00,CLR,SKC,0.00,0.0,WeatherDisplay:10.37,2013-01-21 13:04:00,
2013-01-21 08:09:00,33.2,33.0,30.09,East,85,0.0,0.0,99,0.00,CLR,SKC,0.00,0.0,WeatherDisplay:10.37,2013-01-21 13:09:00,
2013-01-21 08:14:00,33.3,33.0,30.10,SE,138,2.3,2.3,99,0.00,CLR,SKC,0.00,0.0,WeatherDisplay:10.37,2013-01-21 13:14:00,
2013-01-21 08:19:00,34.0,33.7,30.10,SE,140,0.0,0.0,99,0.00,CLR,SKC,0.00,0.0,WeatherDisplay:10.37,2013-01-21 13:19:00,
2013-01-21 08:24:00,34.6,34.3,30.10,SE,140,0.0,0.0,99,0.00,CLR,SKC,0.00,0.0,WeatherDisplay:10.37,2013-01-21 13:24:00,
2013-01-21 08:29:00,35.1,34.6,30.10,SE,140,0.0,0.0,98,0.00,CLR,SKC,0.00,0.0,WeatherDisplay:10.37,2013-01-21 13:29:00,
2013-01-21 08:34:00,35.2,34.7,30.10,SE,140,0.0,0.0,98,0.00,CLR,SKC,0.00,0.0,WeatherDisplay:10.37,2013-01-21 13:34:00,
2013-01-21 08:39:00,35.7,35.2,30.10,SE,140,0.9,0.9,98,0.00,CLR,SKC,0.00,0.0,WeatherDisplay:10.37,2013-01-21 13:39:00,
2013-01-21 08:44:00,36.4,35.9,30.11,SE,140,0.0,0.0,98,0.00,CLR,SKC,0.00,0.0,WeatherDisplay:10.37,2013-01-21 13:44:00,
2013-01-21 08:49:00,37.7,37.2,30.11,SE,134,3.0,3.0,98,0.00,CLR,SKC,0.00,0.0,WeatherDisplay:10.37,2013-01-21 13:49:00,
2013-01-21 08:54:00,38.2,37.2,30.11,ESE,104,3.5,3.5,96,0.00,CLR,SKC,0.00,0.0,WeatherDisplay:10.37,2013-01-21 13:54:00,
2013-01-21 08:59:00,39.0,37.1,30.11,SSE,158,2.3,2.3,93,0.00,CLR,SKC,0.00,0.0,WeatherDisplay:10.37,2013-01-21 13:59:00,
2013-01-21 09:04:00,40.3,38.2,30.11,SE,140,2.3,2.3,92,0.00,OVC,SKC,0.00,0.0,WeatherDisplay:10.37,2013-01-21 14:04:00,
2013-01-21 09:09:00,41.3,38.3,30.11,ESE,119,2.9,2.9,89,0.00,OVC,SKC,0.00,0.0,WeatherDisplay:10.37,2013-01-21 14:09:00,
2013-01-21 09:14:00,42.0,38.1,30.11,SSE,155,2.3,2.3,86,0.00,OVC,SKC,0.00,0.0,WeatherDisplay:10.37,2013-01-21 14:14:00,
2013-01-21 09:19:00,42.3,38.1,30.11,SSW,198,3.6,3.6,85,0.00,OVC,SKC,0.00,0.0,WeatherDisplay:10.37,2013-01-21 14:19:00,
2013-01-21 09:24:00,43.0,37.9,30.11,SSW,195,4.6,4.6,82,0.00,OVC,SKC,0.00,0.0,WeatherDisplay:10.37,2013-01-21 14:24:00,
2013-01-21 09:29:00,43.7,39.2,30.11,SW,233,3.3,3.3,84,0.00,OVC,SKC,0.00,0.0,WeatherDisplay:10.37,2013-01-21 14:29:00,
2013-01-21 09:34:00,44.3,38.2,30.11,SE,140,3.5,3.5,79,0.00,OVC,SKC,0.00,0.0,WeatherDisplay:10.37,2013-01-21 14:34:00,
2013-01-21 09:39:00,44.8,39.0,30.11,SW,230,2.3,2.3,80,0.00,OVC,SKC,0.00,0.0,WeatherDisplay:10.37,2013-01-21 14:39:00,
2013-01-21 09:44:00,45.6,39.8,30.11,SSW,199,1.1,1.1,80,0.00,OVC,SKC,0.00,0.0,WeatherDisplay:10.37,2013-01-21 14:44:00,
2013-01-21 09:49:00,46.4,38.6,30.10,WNW,298,3.6,3.6,74,0.00,OVC,SKC,0.00,0.0,WeatherDisplay:10.37,2013-01-21 14:49:00,
2013-01-21 09:54:00,47.5,40.0,30.10,SSW,213,3.5,3.5,75,0.00,OVC,SKC,0.00,0.0,WeatherDisplay:10.37,2013-01-21 14:54:00,
2013-01-21 09:59:00,47.5,38.9,30.10,WNW,292,4.6,4.6,72,0.00,OVC,SKC,0.00,0.0,WeatherDisplay:10.37,2013-01-21 14:59:00,
2013-01-21 10:04:00,48.2,39.6,30.10,SW,229,5.8,5.8,72,0.00,OVC,SKC,0.00,0.0,WeatherDisplay:10.37,2013-01-21 15:04:00,
2013-01-21 10:09:00,48.5,39.9,30.10,WSW,251,5.8,5.8,72,0.00,OVC,SKC,0.00,0.0,WeatherDisplay:10.37,2013-01-21 15:09:00,
2013-01-21 10:14:00,49.0,40.0,30.10,SSW,200,5.8,5.8,71,0.00,OVC,SKC,0.00,0.0,WeatherDisplay:10.37,2013-01-21 15:14:00,
2013-01-21 10:19:00,49.5,40.1,30.09,NW,311,3.5,3.5,70,0.00,OVC,SKC,0.00,0.0,WeatherDisplay:10.37,2013-01-21 15:19:00,
2013-01-21 10:24:00,50.3,40.9,30.09,WNW,296,4.6,4.6,70,0.00,OVC,SKC,0.00,0.0,WeatherDisplay:10.37,2013-01-21 15:24:00,
2013-01-21 10:29:00,50.2,39.7,30.09,WNW,287,6.9,6.9,67,0.00,OVC,SKC,0.00,0.0,WeatherDisplay:10.37,2013-01-21 15:29:00,
2013-01-21 10:34:00,50.6,40.0,30.08,West,260,6.9,6.9,67,0.00,OVC,SKC,0.00,0.0,WeatherDisplay:10.37,2013-01-21 15:34:00,
2013-01-21 10:39:00,51.1,41.3,30.08,WSW,239,3.4,3.4,69,0.00,OVC,SKC,0.00,0.0,WeatherDisplay:10.37,2013-01-21 15:39:00,
2013-01-21 10:44:00,51.3,40.7,30.08,WSW,254,4.6,4.6,67,0.00,OVC,SKC,0.00,0.0,WeatherDisplay:10.37,2013-01-21 15:44:00,
2013-01-21 10:49:00,51.7,39.1,30.08,West,281,8.1,8.1,62,0.00,OVC,SKC,0.00,0.0,WeatherDisplay:10.37,2013-01-21 15:49:00,
2013-01-21 10:54:00,52.5,39.8,30.07,West,265,8.1,8.1,62,0.00,OVC,SKC,0.00,0.0,WeatherDisplay:10.37,2013-01-21 15:54:00,
2013-01-21 10:59:00,52.7,40.0,30.07,NW,318,7.3,7.3,62,0.00,OVC,SKC,0.00,0.0,WeatherDisplay:10.37,2013-01-21 15:59:00,
2013-01-21 11:04:00,53.0,40.7,30.06,WNW,282,5.8,5.8,63,0.00,OVC,SKC,0.00,0.0,WeatherDisplay:10.37,2013-01-21 16:04:00,
2013-01-21 11:09:00,53.5,39.9,30.06,West,275,9.2,9.2,60,0.00,OVC,SKC,0.00,0.0,WeatherDisplay:10.37,2013-01-21 16:09:00,
2013-01-21 11:14:00,54.1,39.6,30.06,NW,313,5.8,5.8,58,0.00,OVC,SKC,0.00,0.0,WeatherDisplay:10.37,2013-01-21 16:14:00,
2013-01-21 11:19:00,54.0,38.6,30.06,NW,319,8.1,8.1,56,0.00,OVC,SKC,0.00,0.0,WeatherDisplay:10.37,2013-01-21 16:19:00,
2013-01-21 11:24:00,54.1,37.3,30.05,WNW,301,9.2,9.2,53,0.00,OVC,SKC,0.00,0.0,WeatherDisplay:10.37,2013-01-21 16:24:00,
2013-01-21 11:29:00,54.6,38.7,30.04,West,270,4.6,4.6,55,0.00,OVC,SKC,0.00,0.0,WeatherDisplay:10.37,2013-01-21 16:29:00,
2013-01-21 11:34:00,55.4,39.0,30.03,WSW,254,7.1,7.1,54,0.00,OVC,SKC,0.00,0.0,WeatherDisplay:10.37,2013-01-21 16:34:00,
2013-01-21 11:39:00,55.6,38.7,30.03,WNW,295,3.5,3.5,53,0.00,OVC,SKC,0.00,0.0,WeatherDisplay:10.37,2013-01-21 16:39:00,
2013-01-21 11:44:00,55.8,38.4,30.02,WSW,243,10.4,10.4,52,0.00,OVC,SKC,0.00,0.0,WeatherDisplay:10.37,2013-01-21 16:44:00,
2013-01-21 11:49:00,56.3,38.9,30.02,West,281,5.2,5.2,52,0.00,OVC,SKC,0.00,0.0,WeatherDisplay:10.37,2013-01-21 16:49:00,
2013-01-21 11:54:00,55.6,37.2,30.01,NW,323,8.1,8.1,50,0.00,OVC,SKC,0.00,0.0,WeatherDisplay:10.37,2013-01-21 16:54:00,
2013-01-21 11:59:00,56.4,36.4,30.01,WNW,284,8.1,8.1,47,0.00,OVC,SKC,0.00,0.0,WeatherDisplay:10.37,2013-01-21 16:59:00,
2013-01-21 12:04:00,56.8,37.3,30.01,WNW,289,8.1,8.1,48,0.00,OVC,SKC,0.00,0.0,WeatherDisplay:10.37,2013-01-21 17:04:00,
2013-01-21 12:09:00,56.8,38.3,30.00,NNW,340,5.8,5.8,50,0.00,OVC,SKC,0.00,0.0,WeatherDisplay:10.37,2013-01-21 17:09:00,
2013-01-21 12:14:00,56.6,36.6,30.00,NW,315,9.2,9.2,47,0.00,OVC,SKC,0.00,0.0,WeatherDisplay:10.37,2013-01-21 17:14:00,
2013-01-21 12:19:00,56.8,36.8,30.00,WNW,301,6.9,6.9,47,0.00,OVC,SKC,0.00,0.0,WeatherDisplay:10.37,2013-01-21 17:19:00,
2013-01-21 12:24:00,56.9,36.9,29.99,NNW,346,9.2,9.2,47,0.00,OVC,SKC,0.00,0.0,WeatherDisplay:10.37,2013-01-21 17:24:00,
2013-01-21 12:29:00,57.6,35.8,29.99,North,350,6.9,6.9,44,0.00,OVC,SKC,0.00,0.0,WeatherDisplay:10.37,2013-01-21 17:29:00,
2013-01-21 12:34:00,57.3,36.1,29.99,West,271,6.9,6.9,45,0.00,OVC,SKC,0.00,0.0,WeatherDisplay:10.37,2013-01-21 17:34:00,
2013-01-21 12:39:00,57.2,36.0,29.98,NNW,328,6.9,6.9,45,0.00,OVC,SKC,0.00,0.0,WeatherDisplay:10.37,2013-01-21 17:39:00,
2013-01-21 12:44:00,57.6,37.5,29.98,NNW,337,4.6,4.6,47,0.00,OVC,SKC,0.00,0.0,WeatherDisplay:10.37,2013-01-21 17:44:00,
2013-01-21 12:49:00,58.3,37.0,29.97,WNW,298,4.6,4.6,45,0.00,OVC,SKC,0.00,0.0,WeatherDisplay:10.37,2013-01-21 17:49:00,
2013-01-21 12:54:00,58.0,34.4,29.97,NNE,17,8.1,8.1,41,0.00,OVC,SKC,0.00,0.0,WeatherDisplay:10.37,2013-01-21 17:54:00,
2013-01-21 12:59:00,57.4,33.3,29.96,North,360,11.5,11.5,40,0.00,OVC,SKC,0.00,0.0,WeatherDisplay:10.37,2013-01-21 17:59:00,
2013-01-21 13:04:00,58.1,33.9,29.96,NW,306,8.1,8.1,40,0.00,OVC,SKC,0.00,0.0,WeatherDisplay:10.37,2013-01-21 18:04:00,
2013-01-21 13:09:00,58.2,34.6,29.96,NNW,346,8.1,8.1,41,0.00,OVC,SKC,0.00,0.0,WeatherDisplay:10.37,2013-01-21 18:09:00,
2013-01-21 13:14:00,58.3,35.3,29.96,NNW,340,5.8,5.8,42,0.00,OVC,SKC,0.00,0.0,WeatherDisplay:10.37,2013-01-21 18:14:00,
2013-01-21 13:19:00,58.7,36.2,29.95,North,10,6.3,6.3,43,0.00,OVC,SKC,0.00,0.0,WeatherDisplay:10.37,2013-01-21 18:19:00,
2013-01-21 13:24:00,58.4,34.2,29.95,NW,308,6.9,6.9,40,0.00,OVC,SKC,0.00,0.0,WeatherDisplay:10.37,2013-01-21 18:24:00,
2013-01-21 13:29:00,58.6,34.3,29.95,WNW,284,8.1,8.1,40,0.00,OVC,SKC,0.00,0.0,WeatherDisplay:10.37,2013-01-21 18:29:00,
2013-01-21 13:34:00,58.7,35.7,29.94,NNE,25,5.8,5.8,42,0.00,OVC,SKC,0.00,0.0,WeatherDisplay:10.37,2013-01-21 18:34:00,
2013-01-21 13:39:00,58.8,35.1,29.94,NW,308,4.6,4.6,41,0.00,OVC,SKC,0.00,0.0,WeatherDisplay:10.37,2013-01-21 18:39:00,
2013-01-21 13:44:00,58.8,34.5,29.93,WNW,296,9.2,9.2,40,0.00,OVC,SKC,0.00,0.0,WeatherDisplay:10.37,2013-01-21 18:44:00,
2013-01-21 13:49:00,58.6,35.0,29.94,NNE,24,9.2,9.2,41,0.00,OVC,SKC,0.00,0.0,WeatherDisplay:10.37,2013-01-21 18:49:00,
2013-01-21 13:54:00,58.8,34.5,29.93,North,359,10.4,10.4,40,0.00,OVC,SKC,0.00,0.0,WeatherDisplay:10.37,2013-01-21 18:54:00,
2013-01-21 13:59:00,58.8,34.5,29.93,NNW,337,8.1,8.1,40,0.00,OVC,SKC,0.00,0.0,WeatherDisplay:10.37,2013-01-21 18:59:00,
2013-01-21 14:04:00,59.2,36.1,29.93,NW,323,8.1,8.1,42,0.00,OVC,SKC,0.00,0.0,WeatherDisplay:10.37,2013-01-21 19:04:00,
2013-01-21 14:09:00,58.9,35.2,29.93,North,360,9.2,9.2,41,0.00,OVC,SKC,0.00,0.0,WeatherDisplay:10.37,2013-01-21 19:09:00,
2013-01-21 14:14:00,59.2,35.5,29.93,NNE,17,9.2,9.2,41,0.00,OVC,SKC,0.00,0.0,WeatherDisplay:10.37,2013-01-21 19:14:00,
2013-01-21 14:20:00,59.4,36.3,29.92,NW,319,8.1,8.1,42,0.00,OVC,SKC,0.00,0.0,WeatherDisplay:10.37,2013-01-21 19:20:00,
2013-01-21 14:25:00,59.1,36.0,29.92,NNW,340,9.2,9.2,42,0.00,OVC,SKC,0.00,0.0,WeatherDisplay:10.37,2013-01-21 19:25:00,
2013-01-21 14:30:00,59.3,35.6,29.91,North,360,9.2,9.2,41,0.00,OVC,SKC,0.00,0.0,WeatherDisplay:10.37,2013-01-21 19:30:00,
2013-01-21 14:35:00,59.2,36.1,29.91,North,360,10.4,10.4,42,0.00,OVC,SKC,0.00,0.0,WeatherDisplay:10.37,2013-01-21 19:35:00,
2013-01-21 14:40:00,59.6,37.1,29.91,NE,35,8.1,8.1,43,0.00,OVC,SKC,0.00,0.0,WeatherDisplay:10.37,2013-01-21 19:40:00,
2013-01-21 14:45:00,59.5,36.4,29.91,NNW,342,8.1,8.1,42,0.00,OVC,SKC,0.00,0.0,WeatherDisplay:10.37,2013-01-21 19:45:00,
2013-01-21 14:50:00,59.1,35.4,29.91,North,6,10.4,10.4,41,0.00,OVC,SKC,0.00,0.0,WeatherDisplay:10.37,2013-01-21 19:50:00,
2013-01-21 14:55:00,59.6,37.1,29.91,NNW,339,6.0,6.0,43,0.00,OVC,SKC,0.00,0.0,WeatherDisplay:10.37,2013-01-21 19:55:00,
2013-01-21 15:00:00,59.7,37.2,29.91,North,7,11.5,11.5,43,0.00,OVC,SKC,0.00,0.0,WeatherDisplay:10.37,2013-01-21 20:00:00,
2013-01-21 15:05:00,60.5,37.9,29.90,NNW,344,9.2,9.2,43,0.00,OVC,SKC,0.00,0.0,WeatherDisplay:10.37,2013-01-21 20:05:00,
2013-01-21 15:10:00,59.5,36.4,29.90,North,349,10.4,10.4,42,0.00,OVC,SKC,0.00,0.0,WeatherDisplay:10.37,2013-01-21 20:10:00,
2013-01-21 15:15:00,60.2,38.2,29.89,NNW,346,6.9,6.9,44,0.00,OVC,SKC,0.00,0.0,WeatherDisplay:10.37,2013-01-21 20:15:00,
2013-01-21 15:20:00,59.8,37.8,29.89,NNW,343,6.9,6.9,44,0.00,OVC,SKC,0.00,0.0,WeatherDisplay:10.37,2013-01-21 20:20:00,
2013-01-21 15:25:00,59.8,37.8,29.89,NNW,335,8.1,8.1,44,0.00,OVC,SKC,0.00,0.0,WeatherDisplay:10.37,2013-01-21 20:25:00,
2013-01-21 15:30:00,59.5,36.4,29.89,North,357,12.7,12.7,42,0.00,OVC,SKC,0.00,0.0,WeatherDisplay:10.37,2013-01-21 20:30:00,
2013-01-21 15:35:00,60.0,37.4,29.89,North,354,8.1,8.1,43,0.00,OVC,SKC,0.00,0.0,WeatherDisplay:10.37,2013-01-21 20:35:00,
2013-01-21 15:40:00,60.2,37.6,29.88,North,353,9.2,9.2,43,0.00,OVC,SKC,0.00,0.0,WeatherDisplay:10.37,2013-01-21 20:40:00,
2013-01-21 15:45:00,60.0,37.4,29.88,North,360,6.9,6.9,43,0.00,OVC,SKC,0.00,0.0,WeatherDisplay:10.37,2013-01-21 20:45:00,
2013-01-21 15:50:00,59.7,37.7,29.88,North,350,10.4,10.4,44,0.00,OVC,SKC,0.00,0.0,WeatherDisplay:10.37,2013-01-21 20:50:00,
2013-01-21 15:56:00,59.3,37.4,29.88,NNW,344,10.4,10.4,44,0.00,OVC,SKC,0.00,0.0,WeatherDisplay:10.37,2013-01-21 20:56:00,
2013-01-21 16:02:00,59.3,38.5,29.88,NW,326,8.1,8.1,46,0.00,CLR,SKC,0.00,0.0,WeatherDisplay:10.37,2013-01-21 21:02:00,
2013-01-21 16:07:00,59.5,38.7,29.88,NNW,329,11.5,11.5,46,0.00,CLR,SKC,0.00,0.0,WeatherDisplay:10.37,2013-01-21 21:07:00,
2013-01-21 16:12:00,59.5,38.1,29.88,North,360,9.2,9.2,45,0.00,CLR,SKC,0.00,0.0,WeatherDisplay:10.37,2013-01-21 21:12:00,
2013-01-21 16:17:00,59.2,38.4,29.88,NNE,17,8.1,8.1,46,0.00,CLR,SKC,0.00,0.0,WeatherDisplay:10.37,2013-01-21 21:17:00,
2013-01-21 16:22:00,59.4,39.1,29.88,NNE,31,6.9,6.9,47,0.00,CLR,SKC,0.00,0.0,WeatherDisplay:10.37,2013-01-21 21:22:00,
2013-01-21 16:27:00,59.2,38.4,29.88,North,7,9.2,9.2,46,0.00,CLR,SKC,0.00,0.0,WeatherDisplay:10.37,2013-01-21 21:27:00,
2013-01-21 16:32:00,59.1,38.9,29.88,North,353,5.8,5.8,47,0.00,CLR,SKC,0.00,0.0,WeatherDisplay:10.37,2013-01-21 21:32:00,
2013-01-21 16:37:00,59.1,38.9,29.88,NNE,18,9.2,9.2,47,0.00,CLR,SKC,0.00,0.0,WeatherDisplay:10.37,2013-01-21 21:37:00,
2013-01-21 16:42:00,58.8,39.1,29.88,NNE,28,9.2,9.2,48,0.00,CLR,SKC,0.00,0.0,WeatherDisplay:10.37,2013-01-21 21:42:00,
2013-01-21 16:47:00,58.1,38.5,29.87,NE,40,8.1,8.1,48,0.00,CLR,SKC,0.00,0.0,WeatherDisplay:10.37,2013-01-21 21:47:00,
2013-01-21 16:52:00,58.0,38.9,29.88,NNW,339,5.8,5.8,49,0.00,CLR,SKC,0.00,0.0,WeatherDisplay:10.37,2013-01-21 21:52:00,
2013-01-21 16:57:00,58.0,39.5,29.87,NNE,16,9.2,9.2,50,0.00,CLR,SKC,0.00,0.0,WeatherDisplay:10.37,2013-01-21 21:57:00,
2013-01-21 17:02:00,57.9,39.4,29.87,NNE,32,6.9,6.9,50,0.00,CLR,SKC,0.00,0.0,WeatherDisplay:10.37,2013-01-21 22:02:00,
2013-01-21 17:07:00,57.4,39.4,29.87,North,353,6.9,6.9,51,0.00,CLR,SKC,0.00,0.0,WeatherDisplay:10.37,2013-01-21 22:07:00,
2013-01-21 17:12:00,57.5,39.5,29.87,North,360,8.1,8.1,51,0.00,CLR,SKC,0.00,0.0,WeatherDisplay:10.37,2013-01-21 22:12:00,
2013-01-21 17:17:00,56.9,39.4,29.87,NW,326,6.9,6.9,52,0.00,CLR,SKC,0.00,0.0,WeatherDisplay:10.37,2013-01-21 22:17:00,
2013-01-21 17:22:00,56.9,40.4,29.87,NNW,343,4.6,4.6,54,0.00,CLR,SKC,0.00,0.0,WeatherDisplay:10.37,2013-01-21 22:22:00,
2013-01-21 17:27:00,55.8,39.4,29.87,North,6,6.9,6.9,54,0.00,CLR,SKC,0.00,0.0,WeatherDisplay:10.37,2013-01-21 22:27:00,
2013-01-21 17:33:00,55.7,39.8,29.87,NNW,336,3.7,3.7,55,0.00,CLR,SKC,0.00,0.0,WeatherDisplay:10.37,2013-01-21 22:33:00,
2013-01-21 17:39:00,55.3,39.9,29.87,NNE,25,4.6,4.6,56,0.00,CLR,SKC,0.00,0.0,WeatherDisplay:10.37,2013-01-21 22:39:00,
2013-01-21 17:44:00,54.8,39.4,29.87,NW,319,3.5,3.5,56,0.00,CLR,SKC,0.00,0.0,WeatherDisplay:10.37,2013-01-21 22:44:00,
2013-01-21 17:49:00,54.4,39.9,29.87,NW,312,0.0,0.0,58,0.00,CLR,SKC,0.00,0.0,WeatherDisplay:10.37,2013-01-21 22:49:00,
2013-01-21 17:54:00,53.4,39.4,29.86,West,275,5.8,5.8,59,0.00,CLR,SKC,0.00,0.0,WeatherDisplay:10.37,2013-01-21 22:54:00,
2013-01-21 17:59:00,53.4,40.7,29.86,WNW,301,0.0,0.0,62,0.00,CLR,SKC,0.00,0.0,WeatherDisplay:10.37,2013-01-21 22:59:00,
2013-01-21 18:04:00,53.0,41.5,29.86,WNW,301,0.0,0.0,65,0.00,CLR,SKC,0.00,0.0,WeatherDisplay:10.37,2013-01-21 23:04:00,
2013-01-21 18:09:00,52.2,41.2,29.86,West,265,0.0,0.0,66,0.00,CLR,SKC,0.00,0.0,WeatherDisplay:10.37,2013-01-21 23:09:00,
2013-01-21 18:14:00,51.9,41.3,29.86,West,265,0.0,0.0,67,0.00,CLR,SKC,0.00,0.0,WeatherDisplay:10.37,2013-01-21 23:14:00,
2013-01-21 18:19:00,51.2,41.4,29.86,SSW,213,0.0,0.0,69,0.00,CLR,SKC,0.00,0.0,WeatherDisplay:10.37,2013-01-21 23:19:00,
2013-01-21 18:24:00,50.4,40.6,29.86,SSW,213,0.0,0.0,69,0.00,CLR,SKC,0.00,0.0,WeatherDisplay:10.37,2013-01-21 23:24:00,
2013-01-21 18:29:00,50.3,40.5,29.87,SSW,213,0.0,0.0,69,0.00,CLR,SKC,0.00,0.0,WeatherDisplay:10.37,2013-01-21 23:29:00,
2013-01-21 18:34:00,50.6,40.8,29.87,North,11,4.6,4.6,69,0.00,CLR,SKC,0.00,0.0,WeatherDisplay:10.37,2013-01-21 23:34:00,
2013-01-21 18:39:00,51.0,40.0,29.87,NNW,347,4.6,4.6,66,0.00,CLR,SKC,0.00,0.0,WeatherDisplay:10.37,2013-01-21 23:39:00,
2013-01-21 18:44:00,51.4,40.0,29.87,NNW,340,4.6,4.6,65,0.00,CLR,SKC,0.00,0.0,WeatherDisplay:10.37,2013-01-21 23:44:00,
2013-01-21 18:49:00,51.9,40.1,29.87,North,353,4.6,4.6,64,0.00,CLR,SKC,0.00,0.0,WeatherDisplay:10.37,2013-01-21 23:49:00,
2013-01-21 18:54:00,52.3,40.5,29.88,North,353,5.8,5.8,64,0.00,CLR,SKC,0.00,0.0,WeatherDisplay:10.37,2013-01-21 23:54:00,
2013-01-21 18:59:00,52.3,40.5,29.88,NNE,13,5.8,5.8,64,0.00,CLR,SKC,0.00,0.0,WeatherDisplay:10.37,2013-01-21 23:59:00,
2013-01-21 19:04:00,52.8,41.0,29.88,NNW,346,8.1,8.1,64,0.00,CLR,SKC,0.00,0.0,WeatherDisplay:10.37,2013-01-22 00:04:00,
2013-01-21 19:09:00,52.6,40.4,29.88,NNW,333,8.1,8.1,63,0.00,CLR,SKC,0.00,0.0,WeatherDisplay:10.37,2013-01-22 00:09:00,
2013-01-21 19:14:00,52.6,40.4,29.88,NNW,332,6.9,6.9,63,0.00,CLR,SKC,0.00,0.0,WeatherDisplay:10.37,2013-01-22 00:14:00,
2013-01-21 19:19:00,52.8,41.0,29.88,North,349,5.8,5.8,64,0.00,CLR,SKC,0.00,0.0,WeatherDisplay:10.37,2013-01-22 00:19:00,
2013-01-21 19:24:00,52.8,41.0,29.88,NNW,333,8.1,8.1,64,0.00,CLR,SKC,0.00,0.0,WeatherDisplay:10.37,2013-01-22 00:24:00,
2013-01-21 19:29:00,52.1,40.3,29.88,North,354,6.9,6.9,64,0.00,CLR,SKC,0.00,0.0,WeatherDisplay:10.37,2013-01-22 00:29:00,
2013-01-21 19:34:00,52.2,40.4,29.88,NNW,347,5.8,5.8,64,0.00,CLR,SKC,0.00,0.0,WeatherDisplay:10.37,2013-01-22 00:34:00,
2013-01-21 19:39:00,52.4,40.6,29.88,NNE,30,8.1,8.1,64,0.00,CLR,SKC,0.00,0.0,WeatherDisplay:10.37,2013-01-22 00:39:00,
2013-01-21 19:44:00,52.1,40.3,29.88,NNW,347,5.8,5.8,64,0.00,CLR,SKC,0.00,0.0,WeatherDisplay:10.37,2013-01-22 00:44:00,
2013-01-21 19:49:00,51.8,40.4,29.89,North,360,6.9,6.9,65,0.00,CLR,SKC,0.00,0.0,WeatherDisplay:10.37,2013-01-22 00:49:00,
2013-01-21 19:54:00,52.1,40.7,29.89,North,360,4.6,4.6,65,0.00,CLR,SKC,0.00,0.0,WeatherDisplay:10.37,2013-01-22 00:54:00,
2013-01-21 19:59:00,51.8,40.8,29.89,WNW,299,4.6,4.6,66,0.00,CLR,SKC,0.00,0.0,WeatherDisplay:10.37,2013-01-22 00:59:00,
2013-01-21 20:04:00,51.0,40.4,29.89,NNW,329,4.0,4.0,67,0.00,CLR,SKC,0.00,0.0,WeatherDisplay:10.37,2013-01-22 01:04:00,
2013-01-21 20:09:00,50.8,41.0,29.89,NNW,347,6.3,6.3,69,0.00,CLR,SKC,0.00,0.0,WeatherDisplay:10.37,2013-01-22 01:09:00,
2013-01-21 20:14:00,50.9,41.1,29.89,NNW,333,5.8,5.8,69,0.00,CLR,SKC,0.00,0.0,WeatherDisplay:10.37,2013-01-22 01:14:00,
2013-01-21 20:19:00,50.8,40.6,29.89,NNW,343,6.2,6.2,68,0.00,CLR,SKC,0.00,0.0,WeatherDisplay:10.37,2013-01-22 01:19:00,
2013-01-21 20:24:00,50.4,40.6,29.89,NNW,346,5.5,5.5,69,0.00,CLR,SKC,0.00,0.0,WeatherDisplay:10.37,2013-01-22 01:24:00,
2013-01-21 20:29:00,50.8,40.6,29.89,NNW,340,5.8,5.8,68,0.00,CLR,SKC,0.00,0.0,WeatherDisplay:10.37,2013-01-22 01:29:00,
2013-01-21 20:34:00,51.2,40.6,29.89,NNW,347,5.8,5.8,67,0.00,CLR,SKC,0.00,0.0,WeatherDisplay:10.37,2013-01-22 01:34:00,
2013-01-21 20:39:00,50.9,40.3,29.90,NNW,346,4.6,4.6,67,0.00,CLR,SKC,0.00,0.0,WeatherDisplay:10.37,2013-01-22 01:39:00,
2013-01-21 20:44:00,50.9,40.7,29.90,North,356,6.9,6.9,68,0.00,CLR,SKC,0.00,0.0,WeatherDisplay:10.37,2013-01-22 01:44:00,
2013-01-21 20:49:00,50.8,40.6,29.90,NNW,335,8.0,8.0,68,0.00,CLR,SKC,0.00,0.0,WeatherDisplay:10.37,2013-01-22 01:49:00,
2013-01-21 20:54:00,50.9,40.3,29.90,NNW,343,5.8,5.8,67,0.00,CLR,SKC,0.00,0.0,WeatherDisplay:10.37,2013-01-22 01:54:00,
2013-01-21 20:59:00,51.0,40.4,29.90,NNE,18,6.9,6.9,67,0.00,CLR,SKC,0.00,0.0,WeatherDisplay:10.37,2013-01-22 01:59:00,
2013-01-21 21:04:00,51.4,40.4,29.91,NE,42,8.3,8.3,66,0.00,CLR,SKC,0.00,0.0,WeatherDisplay:10.37,2013-01-22 02:04:00,
2013-01-21 21:09:00,51.6,40.2,29.92,NNE,20,8.1,8.1,65,0.00,CLR,SKC,0.00,0.0,WeatherDisplay:10.37,2013-01-22 02:09:00,
2013-01-21 21:14:00,51.5,40.1,29.92,North,11,4.6,4.6,65,0.00,CLR,SKC,0.00,0.0,WeatherDisplay:10.37,2013-01-22 02:14:00,
2013-01-21 21:19:00,51.5,39.7,29.92,NNE,31,4.6,5.6,64,0.00,CLR,SKC,0.00,0.0,WeatherDisplay:10.37,2013-01-22 02:19:00,
2013-01-21 21:24:00,51.4,40.0,29.93,NNE,20,4.6,4.6,65,0.00,CLR,SKC,0.00,0.0,WeatherDisplay:10.37,2013-01-22 02:24:00,
2013-01-21 21:29:00,51.6,40.2,29.93,NE,37,5.0,5.0,65,0.00,CLR,SKC,0.00,0.0,WeatherDisplay:10.37,2013-01-22 02:29:00,
2013-01-21 21:34:00,51.3,39.9,29.93,ENE,69,5.8,5.8,65,0.00,CLR,SKC,0.00,0.0,WeatherDisplay:10.37,2013-01-22 02:34:00,
2013-01-21 21:39:00,51.0,39.6,29.93,NE,45,6.9,6.9,65,0.00,CLR,SKC,0.00,0.0,WeatherDisplay:10.37,2013-01-22 02:39:00,
2013-01-21 21:44:00,50.7,39.4,29.94,East,96,5.8,5.8,65,0.00,CLR,SKC,0.00,0.0,WeatherDisplay:10.37,2013-01-22 02:44:00,
2013-01-21 21:49:00,50.4,38.7,29.93,North,6,6.9,6.9,64,0.00,CLR,SKC,0.00,0.0,WeatherDisplay:10.37,2013-01-22 02:49:00,
2013-01-21 21:54:00,50.3,37.4,29.94,NE,41,8.1,8.1,61,0.00,CLR,SKC,0.00,0.0,WeatherDisplay:10.37,2013-01-22 02:54:00,
2013-01-21 21:59:00,50.7,37.3,29.94,NE,51,6.9,6.9,60,0.00,CLR,SKC,0.00,0.0,WeatherDisplay:10.37,2013-01-22 02:59:00,
2013-01-21 22:04:00,50.5,36.3,29.94,NE,42,9.2,9.2,58,0.00,CLR,SKC,0.00,0.0,WeatherDisplay:10.37,2013-01-22 03:04:00,
2013-01-21 22:09:00,50.4,35.7,29.94,NE,35,5.8,5.8,57,0.00,CLR,SKC,0.00,0.0,WeatherDisplay:10.37,2013-01-22 03:09:00,
2013-01-21 22:14:00,50.6,35.0,29.94,NNE,14,8.0,8.0,55,0.00,CLR,SKC,0.00,0.0,WeatherDisplay:10.37,2013-01-22 03:14:00,
2013-01-21 22:19:00,50.6,34.6,29.94,ENE,59,2.5,3.2,54,0.00,CLR,SKC,0.00,0.0,WeatherDisplay:10.37,2013-01-22 03:19:00,
2013-01-21 22:24:00,50.3,34.3,29.94,East,83,4.6,4.6,54,0.00,CLR,SKC,0.00,0.0,WeatherDisplay:10.37,2013-01-22 03:24:00,
2013-01-21 22:29:00,49.6,32.7,29.94,SE,143,9.2,9.2,52,0.00,CLR,SKC,0.00,0.0,WeatherDisplay:10.37,2013-01-22 03:29:00,
2013-01-21 22:34:00,49.8,32.9,29.95,ENE,65,4.6,4.6,52,0.00,CLR,SKC,0.00,0.0,WeatherDisplay:10.37,2013-01-22 03:34:00,
2013-01-21 22:39:00,49.5,32.6,29.94,NE,51,6.9,6.9,52,0.00,CLR,SKC,0.00,0.0,WeatherDisplay:10.37,2013-01-22 03:39:00,
2013-01-21 22:44:00,49.7,32.8,29.95,ENE,76,6.9,6.9,52,0.00,CLR,SKC,0.00,0.0,WeatherDisplay:10.37,2013-01-22 03:44:00,
2013-01-21 22:49:00,49.3,32.4,29.95,East,92,4.0,4.0,52,0.00,CLR,SKC,0.00,0.0,WeatherDisplay:10.37,2013-01-22 03:49:00,
2013-01-21 22:54:00,49.5,32.1,29.95,NE,47,6.9,6.9,51,0.00,CLR,SKC,0.00,0.0,WeatherDisplay:10.37,2013-01-22 03:54:00,
2013-01-21 22:59:00,49.1,31.2,29.95,NNE,27,6.9,6.9,50,0.00,CLR,SKC,0.00,0.0,WeatherDisplay:10.37,2013-01-22 03:59:00,
2013-01-21 23:04:00,49.2,31.3,29.95,ENE,65,5.8,5.8,50,0.00,CLR,SKC,0.00,0.0,WeatherDisplay:10.37,2013-01-22 04:04:00,
2013-01-21 23:09:00,48.9,30.6,29.95,North,360,6.9,6.9,49,0.00,CLR,SKC,0.00,0.0,WeatherDisplay:10.37,2013-01-22 04:09:00,
2013-01-21 23:14:00,49.1,30.7,29.95,North,10,2.3,2.3,49,0.00,CLR,SKC,0.00,0.0,WeatherDisplay:10.37,2013-01-22 04:14:00,
2013-01-21 23:19:00,48.5,30.7,29.96,ENE,71,4.6,4.6,50,0.00,CLR,SKC,0.00,0.0,WeatherDisplay:10.37,2013-01-22 04:19:00,
2013-01-21 23:24:00,48.4,30.6,29.96,East,83,4.6,4.6,50,0.00,CLR,SKC,0.00,0.0,WeatherDisplay:10.37,2013-01-22 04:24:00,
2013-01-21 23:29:00,48.3,30.5,29.96,NE,41,4.2,4.2,50,0.00,CLR,SKC,0.00,0.0,WeatherDisplay:10.37,2013-01-22 04:29:00,
2013-01-21 23:34:00,48.2,30.4,29.96,NNE,18,6.0,6.0,50,0.00,CLR,SKC,0.00,0.0,WeatherDisplay:10.37,2013-01-22 04:34:00,
2013-01-21 23:39:00,47.9,29.1,29.96,NNE,28,5.8,5.8,48,0.00,CLR,SKC,0.00,0.0,WeatherDisplay:10.37,2013-01-22 04:39:00,
2013-01-21 23:44:00,47.7,28.9,29.96,East,88,6.9,6.9,48,0.00,CLR,SKC,0.00,0.0,WeatherDisplay:10.37,2013-01-22 04:44:00,
2013-01-21 23:49:00,47.5,28.8,29.96,ENE,76,6.9,6.9,48,0.00,CLR,SKC,0.00,0.0,WeatherDisplay:10.37,2013-01-22 04:49:00,
2013-01-21 23:54:00,47.5,28.3,29.97,NNE,27,8.1,8.1,47,0.00,CLR,SKC,0.00,0.0,WeatherDisplay:10.37,2013-01-22 04:54:00,
2013-01-21 23:59:00,47.5,28.8,29.96,NNE,16,4.6,4.6,48,0.00,CLR,SKC,0.00,0.0,WeatherDisplay:10.37,2013-01-22 04:59:00,